Regional Weather Roundup
Issued by NWS

Home | Current Version | Previous Version | Text Only | Print | Product List | Glossary On
Versions: 1 2 3 4 5 6 7 8 9 10 11 12 13 14 15 16 17 18 19 20 21 22 23 24 25 26 27 28 29 30 31 32 33 34 35 36 37 38 39 40 41 42 43 44 45 46 47 48 49 50
000
ASUS43 KDTX 202010
RWRMI
MICHIGAN HOURLY REGIONAL WEATHER ROUNDUP
NATIONAL WEATHER SERVICE DETROIT/PONTIAC MI
400 PM EDT MON APR 20 2015

NOTE: "FAIR" INDICATES FEW OR NO CLOUDS BELOW 12,000 FEET WITH NO
SIGNIFICANT WEATHER AND/OR OBSTRUCTION TO VISIBILITY.

MIZ047>049-052>055-059>063-066>070-074>076-081>083-202100-
SOUTHEAST LOWER MICHIGAN

CITY           SKY/WX    TMP DP  RH WIND       PRES   REMARKS
ADRIAN         CLOUDY    53  43  68 W24G40    29.42R
ALMA           CLOUDY    50  47  90 SW18G28   29.30R
ANN ARBOR      CLOUDY    55  44  66 SW21G36   29.38R
BAD AXE        CLOUDY    55  52  89 SW23G30   29.24R
DETROIT CITY   CLOUDY    59  45  59 SW24G36   29.33R
DETROIT        CLOUDY    57  45  62 SW29G40   29.39R
FLINT          LGT RAIN  54  48  80 SW21G32   29.32R
GROSSE ILE     CLOUDY    59  45  58 SW30G41   29.37R
HILLSDALE      CLOUDY    51  46  83 W21G32    29.42R
HOWELL         CLOUDY    51  49  92 SW21G36   29.35R

CITY           SKY/WX    TMP DP  RH WIND       PRES   REMARKS
JACKSON        CLOUDY    49  45  86 SW23G32   29.39R FOG
LAMBERTVILLE   CLOUDY    55  45  67 SW21G30   29.43R
LANSING        LGT RAIN  48  45  89 SW25G31   29.36R FOG
LAPEER         NOT AVBL
MASON          CLOUDY    50  44  80 W15G30    29.37R
MONROE         CLOUDY    57  46  67 W23G38    29.39R
MT. CLEMENS    CLOUDY    61  47  61 SW20G31   29.30R
PONTIAC        CLOUDY    54  46  74 SW20G29   29.33R
PORT HOPE        N/A     55  51  86 SW6G20    29.21R
PORT HURON     CLOUDY    64  48  55 SW20G29   29.29R
TRI CITIES     CLOUDY    54  48  80 SW26G35   29.26R
YPSILANTI      CLOUDY    60  46  59 SW29G44   29.37R
$$
MIZ043>046-050>051-056>058-064>065-071>073-077>080-202100-
SOUTHWEST LOWER MICHIGAN

CITY           SKY/WX    TMP DP  RH WIND       PRES   REMARKS
BATTLE CREEK   CLOUDY    48  43  82 W23G36    29.41R
BENTON HARBOR  CLOUDY    43  40  89 W17       29.46R
BIG RAPIDS     MIX PCPN  46  44  93 W13       29.28R
COLDWATER      CLOUDY    48  42  79 SW22G29   29.43R
HOLLAND        LGT RAIN  43  39  86 W17G28    29.43R FOG
GRAND RAPIDS   LGT RAIN  44  42  93 W26G33    29.38R FOG
KALAMAZOO      LGT RAIN  46  42  86 W21G33    29.44R FOG
MARSHALL       DRIZZLE   46  45  93 MISG      29.40R
MUSKEGON       LGT RAIN  41  38  89 W15G24    29.39R
$$
MIZ016>042-202100-
NORTHERN LOWER MICHIGAN

CITY           SKY/WX    TMP DP  RH WIND       PRES   REMARKS
ALPENA         CLOUDY    55  46  71 SW14G23   29.15R
BEAVER ISLAND  LGT RAIN  38  37  98 SW13G20   29.17R
BELLAIRE       LGT RAIN  42  40  91 SW9       29.22R
CADILLAC       CLOUDY    43  41  93 SW12      29.23R FOG
CHARLEVOIX     LGT RAIN  41  41 100 SW13G18   29.22R
FRANKFORT      RAIN      43  38  82 SW9G16    29.25R
GAYLORD        CLOUDY    41  41 100 SW17G26   29.19R
GRAYLING       LGT RAIN  43  41  93 W10G22    29.22R
HARBOR SPRINGS CLOUDY    38  37  97 SW13      29.18R
HOUGHTON LAKE  CLOUDY    45  40  82 W15G25    29.23R
MANISTEE       CLOUDY    41  37  87 W14       29.28R
OSCODA         CLOUDY    59  48  66 SW22G30   29.18R
PELLSTON       CLOUDY    42  40  92 SW8       29.17R FOG
TRAVERSE CITY  DRIZZLE   44  41  89 SW9       29.22R
$$
MIZ007>008-015-202100-
EASTERN UPPER MICHIGAN

CITY           SKY/WX    TMP DP  RH WIND       PRES   REMARKS
KINROSS        CLOUDY    43  43 100 SW10G16   29.09R
MACKINAC ISLAN CLOUDY    40  40 100 SW12G20   29.14R FOG
NEWBERRY       CLOUDY    40  39  98 W17G23    29.10R FOG
S. S. MARIE    LGT RAIN  46  44  93 SW13      29.07R FOG
$$
MIZ004>006-011>014-085-202100-
CENTRAL UPPER MICHIGAN

CITY           SKY/WX    TMP DP  RH WIND       PRES   REMARKS
MANISTIQUE     LGT RAIN  40  39  97 NW8G16    29.16R
ESCANABA       CLOUDY    41  36  81 W16       29.20R
MENOMINEE      CLOUDY    39  36  87 W12G21    29.25R
SAWYER-GWINN   LGT RAIN  37  34  87 W14G20    29.17R
$$
MIZ001>003-009>011-084-202100-
WESTERN UPPER MICHIGAN

CITY           SKY/WX    TMP DP  RH WIND       PRES   REMARKS
IRON MOUNTAIN  LGT SNOW  37  33  85 NW18G29   29.22R FOG
HOUGHTON       LGT SNOW  33  31  92 W21G33    29.17R VSB 3/4
COPPER HARBOR    N/A     34  32  92 NW14G23   29.15R
IRONWOOD       CLOUDY    36  30  80 W14G20    29.28S
$$

ABBREVIATIONS USED IN REMARKS
   TC - TEMPERATURE IN CELSIUS
  WCI - WIND CHILL INDEX
   HX - HEAT INDEX
  VSB - VISIBILITY




USA.gov is the U.S. government's official web portal to all federal, state and local government web resources and services.